VE3CTP Weather Reports


Display with metric or nautical units.
time (UTC)temp
F
wind
direction
speed
MPH
gust
MPH
rain 1hr
in
rain 24hr
in
rain mn
in
humidity
%
barometer
mb
20260508205526 67 262 4.0 12.0 0.00 0.00 0.00 100
20260508205026 67 275 3.0 9.0 0.00 0.00 0.00 100
20260508204526 67 203 0.0 7.0 0.00 0.00 0.00 100
20260508204026 67 187 3.0 9.0 0.00 0.00 0.00 100
20260508203526 68 229 5.0 10.0 0.00 0.00 0.00 100
20260508203026 68 247 3.0 9.0 0.00 0.00 0.00 100
20260508202526 67 180 4.0 8.0 0.00 0.00 0.00 100
20260508202026 69 277 4.0 9.0 0.00 0.00 0.00 100
20260508201526 67 191 5.0 8.0 0.00 0.00 0.00 100
20260508201026 67 265 3.0 10.0 0.00 0.00 0.00 100
20260508200526 69 236 3.0 14.0 0.00 0.00 0.00 100
20260508200026 69 275 7.0 10.0 0.00 0.00 0.00 100
20260508195526 67 158 0.0 8.0 0.00 0.00 0.00 100
20260508195026 66 230 0.0 5.0 0.00 0.00 0.00 100
20260508194526 68 216 0.0 10.0 0.00 0.00 0.00 100
20260508194026 67 300 0.0 7.0 0.00 0.00 0.00 100
20260508193526 69 262 6.0 7.0 0.00 0.00 0.00 100
20260508193026 69 167 4.0 7.0 0.00 0.00 0.00 100
20260508192526 68 203 3.0 16.0 0.00 0.00 0.00 100
20260508192026 70 279 10.0 10.0 0.00 0.00 0.00 100
20260508191526 67 234 5.0 5.0 0.00 0.00 0.00 100
20260508191026 65 239 2.0 7.0 0.00 0.00 0.00 100
20260508190526 66 216 5.0 9.0 0.00 0.00 0.00 100
20260508190026 65 119 4.0 5.0 0.00 0.00 0.00 100
20260508185526 66 247 3.0 9.0 0.00 0.00 0.00 100
20260508185026 67 250 5.0 9.0 0.00 0.00 0.00 100
20260508184526 67 165 1.0 8.0 0.00 0.00 0.00 100
20260508184026 67 222 6.0 9.0 0.00 0.00 0.00 100
20260508183526 68 135 0.0 7.0 0.00 0.00 0.00 100
20260508183026 67 71 0.0 8.0 0.00 0.00 0.00 100
20260508182526 67 222 0.0 9.0 0.00 0.00 0.00 100
20260508182026 69 219 1.0 7.0 0.00 0.00 0.00 100
20260508181526 69 305 0.0 7.0 0.00 0.00 0.00 100
20260508181026 67 85 0.0 6.0 0.00 0.00 0.00 100
20260508180526 67 150 4.0 8.0 0.00 0.00 0.00 100
20260508180026 66 156 2.0 5.0 0.00 0.00 0.00 100
20260508175526 63 91 1.0 7.0 0.00 0.00 0.00 100
20260508175026 65 122 0.0 5.0 0.00 0.00 0.00 100
20260508174526 67 171 2.0 4.0 0.00 0.00 0.00 100
20260508174026 67 225 0.0 6.0 0.00 0.00 0.00 100
20260508173526 65 241 0.0 0.0 0.00 0.00 0.00 100
20260508173026 64 241 0.0 4.0 0.00 0.00 0.00 100
20260508172526 65 312 0.0 4.0 0.00 0.00 0.00 100
20260508172026 64 251 1.0 4.0 0.00 0.00 0.00 100
20260508171526 64 222 3.0 5.0 0.00 0.00 0.00 100
20260508171026 65 331 3.0 6.0 0.00 0.00 0.00 100
20260508170526 63 196 0.0 3.0 0.00 0.00 0.00 100
20260508170026 61 43 0.0 4.0 0.00 0.00 0.00 100
20260508165526 60 37 0.0 8.0 0.00 0.00 0.00 100
20260508165026 58 66 8.0 8.0 0.00 0.00 0.00 100
20260508164526 58 61 5.0 6.0 0.00 0.00 0.00 100
20260508164026 58 95 3.0 7.0 0.00 0.00 0.00 100
20260508163526 58 90 3.0 12.0 0.00 0.00 0.00 100
20260508163026 59 115 1.0 6.0 0.00 0.00 0.00 100
20260508162526 58 11 2.0 8.0 0.00 0.00 0.00 100
20260508162026 59 28 1.0 4.0 0.00 0.00 0.00 100
20260508161526 59 84 2.0 8.0 0.00 0.00 0.00 100
20260508161026 59 33 6.0 6.0 0.00 0.00 0.00 100
20260508160526 58 19 0.0 4.0 0.00 0.00 0.00 100
20260508160026 58 33 4.0 5.0 0.00 0.00 0.00 100
20260508155526 61 319 1.0 3.0 0.00 0.00 0.00 100
20260508155026 58 87 3.0 9.0 0.00 0.00 0.00 100
20260508154526 59 63 7.0 8.0 0.00 0.00 0.00 100
20260508154026 58 81 6.0 8.0 0.00 0.00 0.00 100
20260508153526 61 153 0.0 2.0 0.00 0.00 0.00 100
20260508153026 60 184 2.0 3.0 0.00 0.00 0.00 100
20260508152526 60 213 0.0 6.0 0.00 0.00 0.00 100
20260508152026 61 47 2.0 4.0 0.00 0.00 0.00 100
20260508151526 60 7 0.0 2.0 0.00 0.00 0.00 100
20260508151026 58 4 0.0 6.0 0.00 0.00 0.00 100
20260508150526 60 37 0.0 6.0 0.00 0.00 0.00 100
20260508150026 58 67 0.0 8.0 0.00 0.00 0.00 100
20260508145526 58 123 5.0 6.0 0.00 0.00 0.00 100
20260508145026 59 53 3.0 5.0 0.00 0.00 0.00 100
20260508144526 57 9 0.0 4.0 0.00 0.00 0.00 100
20260508144026 58 70 3.0 6.0 0.00 0.00 0.00 100
20260508143526 58 23 0.0 8.0 0.00 0.00 0.00 100
20260508143026 59 85 2.0 4.0 0.00 0.00 0.00 100
20260508142526 60 338 0.0 1.0 0.00 0.00 0.00 100
20260508142026 60 351 0.0 4.0 0.00 0.00 0.00 100
20260508141526 60 28 0.0 2.0 0.00 0.00 0.00 100
20260508141026 57 26 0.0 7.0 0.00 0.00 0.00 100
20260508140526 61 257 0.0 3.0 0.00 0.00 0.00 100
20260508140026 58 35 0.0 4.0 0.00 0.00 0.00 100
20260508135526 60 320 1.0 2.0 0.00 0.00 0.00 100
20260508135026 59 68 0.0 1.0 0.00 0.00 0.00 100
20260508134526 60 84 0.0 4.0 0.00 0.00 0.00 100
20260508134026 59 64 0.0 5.0 0.00 0.00 0.00 100
20260508133526 61 46 0.0 1.0 0.00 0.00 0.00 100
20260508133026 60 127 0.0 1.0 0.00 0.00 0.00 100
20260508132526 61 292 0.0 2.0 0.00 0.00 0.00 100
20260508132026 62 271 0.0 1.0 0.00 0.00 0.00 100
20260508131526 63 264 1.0 2.0 0.00 0.00 0.00 100
20260508131026 61 184 0.0 0.0 0.00 0.00 0.00 100
20260508130526 63 184 0.0 1.0 0.00 0.00 0.00 100
20260508130027 62 139 0.0 5.0 0.00 0.00 0.00 100
20260508125527 63 188 0.0 2.0 0.00 0.00 0.00 100
20260508125027 62 198 0.0 0.0 0.00 0.00 0.00 100
20260508124527 63 198 0.0 0.0 0.00 0.00 0.00 100
20260508124027 61 198 0.0 2.0 0.00 0.00 0.00 100
20260508123527 62 194 0.0 0.0 0.00 0.00 0.00 100
20260508123027 61 194 0.0 0.0 0.00 0.00 0.00 100
20260508122527 61 194 0.0 4.0 0.00 0.00 0.00 100
20260508122027 60 54 0.0 0.0 0.00 0.00 0.00 100
20260508121527 59 54 0.0 0.0 0.00 0.00 0.00 100
20260508121027 58 54 0.0 0.0 0.00 0.00 0.00 100
20260508120527 57 54 0.0 4.0 0.00 0.00 0.00 100
20260508120027 57 56 4.0 4.0 0.00 0.00 0.00 100
20260508115527 57 82 0.0 2.0 0.00 0.00 0.00 100
20260508115027 55 56 2.0 2.0 0.00 0.00 0.00 100
20260508114527 56 47 0.0 0.0 0.00 0.00 0.00 100
20260508114027 55 47 0.0 1.0 0.00 0.00 0.00 100
20260508113527 54 70 1.0 2.0 0.00 0.00 0.00 100
20260508113027 53 77 0.0 0.0 0.00 0.00 0.00 100
20260508112527 52 77 0.0 0.0 0.00 0.00 0.00 100
20260508112027 52 77 0.0 0.0 0.00 0.00 0.00 100
20260508111527 50 77 0.0 0.0 0.00 0.00 0.00 100
20260508111027 49 77 0.0 0.0 0.00 0.00 0.00 100
20260508110527 47 77 0.0 0.0 0.00 0.00 0.00 100
20260508110027 45 77 0.0 0.0 0.00 0.00 0.00 100
20260508105527 45 77 0.0 0.0 0.00 0.00 0.00 100
20260508105027 45 77 0.0 0.0 0.00 0.00 0.00 100
20260508104527 45 77 0.0 0.0 0.00 0.00 0.00 100
20260508104027 45 77 0.0 0.0 0.00 0.00 0.00 100
20260508103527 44 77 0.0 0.0 0.00 0.00 0.00 100
20260508103027 44 77 0.0 0.0 0.00 0.00 0.00 100
20260508102527 44 77 0.0 0.0 0.00 0.00 0.00 100
20260508102027 44 77 0.0 0.0 0.00 0.00 0.00 100
20260508101527 44 77 0.0 0.0 0.00 0.00 0.00 100
20260508101027 44 77 0.0 0.0 0.00 0.00 0.00 100
20260508100527 44 77 0.0 0.0 0.00 0.00 0.00 100
20260508100027 45 77 0.0 0.0 0.00 0.00 0.00 100
20260508095527 45 77 0.0 0.0 0.00 0.00 0.00 100
20260508095027 45 77 0.0 0.0 0.00 0.00 0.00 100
20260508094527 46 77 0.0 0.0 0.00 0.00 0.00 100
20260508094027 46 77 0.0 0.0 0.00 0.00 0.00 100
20260508093527 46 77 0.0 0.0 0.00 0.00 0.00 100
20260508093027 46 77 0.0 0.0 0.00 0.00 0.00 100
20260508092527 46 77 0.0 0.0 0.00 0.00 0.00 100
20260508092027 46 77 0.0 0.0 0.00 0.00 0.00 100
20260508091527 46 77 0.0 0.0 0.00 0.00 0.00 100
20260508091027 46 77 0.0 0.0 0.00 0.00 0.00 100
20260508090527 47 77 0.0 0.0 0.00 0.00 0.00 100
20260508090027 47 77 0.0 0.0 0.00 0.00 0.00 100
20260508085527 47 77 0.0 0.0 0.00 0.00 0.00 100
20260508085027 47 77 0.0 0.0 0.00 0.00 0.00 100
20260508084527 47 77 0.0 0.0 0.00 0.00 0.00 100
20260508084027 47 77 0.0 0.0 0.00 0.00 0.00 100
20260508083527 48 77 0.0 0.0 0.00 0.00 0.00 100
20260508083027 48 77 0.0 0.0 0.00 0.00 0.00 100
20260508082527 48 77 0.0 0.0 0.00 0.00 0.00 100
20260508082027 48 77 0.0 2.0 0.00 0.00 0.00 100
20260508081527 49 350 0.0 6.0 0.00 0.00 0.00 100
20260508081027 49 227 0.0 3.0 0.00 0.00 0.00 100
20260508080527 49 250 1.0 2.0 0.00 0.00 0.00 100
20260508080027 49 244 0.0 3.0 0.00 0.00 0.00 100
20260508075527 49 300 2.0 7.0 0.00 0.00 0.00 100
20260508075027 49 257 6.0 6.0 0.00 0.00 0.00 100
20260508074527 48 303 0.0 5.0 0.00 0.00 0.00 100
20260508074027 48 271 1.0 6.0 0.00 0.00 0.00 100
20260508073527 48 1 0.0 0.0 0.00 0.00 0.00 100
20260508073027 48 1 0.0 0.0 0.00 0.00 0.00 100
20260508072527 48 1 0.0 0.0 0.00 0.00 0.00 100
20260508072027 48 1 0.0 0.0 0.00 0.00 0.00 100
20260508071527 48 1 0.0 0.0 0.00 0.00 0.00 100
20260508071027 48 1 0.0 0.0 0.00 0.00 0.00 100
20260508070527 48 1 0.0 0.0 0.00 0.00 0.00 100
20260508070027 48 1 0.0 0.0 0.00 0.00 0.00 100
20260508065527 47 1 0.0 0.0 0.00 0.00 0.00 100
20260508065027 47 1 0.0 0.0 0.00 0.00 0.00 100
20260508064527 47 1 0.0 0.0 0.00 0.00 0.00 100
20260508064027 47 1 0.0 0.0 0.00 0.00 0.00 100
20260508063527 47 1 0.0 0.0 0.00 0.00 0.00 100
20260508063027 48 1 0.0 0.0 0.00 0.00 0.00 100
20260508062527 48 1 0.0 0.0 0.00 0.00 0.00 100
20260508062027 48 1 0.0 0.0 0.00 0.00 0.00 100
20260508061527 48 1 0.0 0.0 0.00 0.00 0.00 100
20260508061027 48 1 0.0 0.0 0.00 0.00 0.00 100
20260508060527 48 1 0.0 0.0 0.00 0.00 0.00 100
20260508060027 49 1 0.0 0.0 0.00 0.00 0.00 100
20260508055527 49 1 0.0 0.0 0.00 0.00 0.00 100
20260508055027 49 1 0.0 0.0 0.00 0.00 0.00 100
20260508054527 49 1 0.0 0.0 0.00 0.00 0.00 100
20260508054027 50 1 0.0 1.0 0.00 0.00 0.00 100
20260508053527 50 285 0.0 1.0 0.00 0.00 0.00 100
20260508053027 50 316 0.0 1.0 0.00 0.00 0.00 100
20260508052527 52 243 0.0 3.0 0.00 0.00 0.00 100
20260508052027 52 233 3.0 7.0 0.00 0.00 0.00 100
20260508051527 51 303 0.0 6.0 0.00 0.00 0.00 100
20260508051027 51 270 1.0 9.0 0.00 0.00 0.00 100
20260508050527 51 274 0.0 4.0 0.00 0.00 0.00 100
20260508050027 52 233 0.0 4.0 0.00 0.00 0.00 100
20260508045527 52 258 1.0 6.0 0.00 0.00 0.00 100
20260508045027 52 313 0.0 4.0 0.00 0.00 0.00 100
20260508044527 51 236 3.0 5.0 0.00 0.00 0.00 100
20260508044028 52 187 0.0 2.0 0.00 0.00 0.00 100
20260508043528 52 227 0.0 3.0 0.00 0.00 0.00 100
20260508043028 52 237 0.0 2.0 0.00 0.00 0.00 100
20260508042528 52 206 0.0 1.0 0.00 0.00 0.00 100
20260508042028 52 219 0.0 2.0 0.00 0.00 0.00 100
20260508041528 52 240 0.0 4.0 0.00 0.00 0.00 100
20260508041028 52 223 0.0 0.0 0.00 0.00 0.00 100
20260508040528 52 223 0.0 0.0 0.00 0.00 0.00 100
20260508040028 52 223 0.0 0.0 0.00 0.00 0.00 100
20260508035528 52 223 0.0 0.0 0.00 0.00 0.00 100
20260508035028 53 223 0.0 0.0 0.00 0.00 0.00 100
20260508034528 53 223 0.0 0.0 0.00 0.00 0.00 100
20260508034028 53 223 0.0 0.0 0.00 0.00 0.00 100
20260508033528 53 223 0.0 2.0 0.00 0.00 0.00 100
20260508033028 53 255 2.0 6.0 0.00 0.00 0.00 100
20260508032528 53 241 4.0 6.0 0.00 0.00 0.00 100
20260508032028 53 153 0.0 7.0 0.00 0.00 0.00 100
20260508031528 53 202 5.0 7.0 0.00 0.00 0.00 100
20260508031028 53 262 2.0 8.0 0.00 0.00 0.00 100
20260508030528 53 247 0.0 8.0 0.00 0.00 0.00 100
20260508030028 54 241 5.0 7.0 0.00 0.00 0.00 100
20260508025528 54 226 1.0 10.0 0.00 0.00 0.00 100
20260508025028 54 236 1.0 8.0 0.00 0.00 0.00 100
20260508024528 54 271 3.0 6.0 0.00 0.00 0.00 100
20260508024028 54 261 4.0 7.0 0.00 0.00 0.00 100
20260508023528 54 260 4.0 7.0 0.00 0.00 0.00 100
20260508023028 54 288 0.0 3.0 0.00 0.00 0.00 100
20260508022528 54 264 0.0 5.0 0.00 0.00 0.00 100
20260508022028 54 240 0.0 3.0 0.00 0.00 0.00 100
20260508021528 54 267 0.0 2.0 0.00 0.00 0.00 100
20260508021028 54 243 0.0 0.0 0.00 0.00 0.00 100
20260508020528 54 243 0.0 2.0 0.00 0.00 0.00 100
20260508020028 54 254 0.0 0.0 0.00 0.00 0.00 100
20260508015528 54 254 0.0 0.0 0.00 0.00 0.00 100
20260508015028 54 254 0.0 5.0 0.00 0.00 0.00 100
20260508014528 54 258 0.0 2.0 0.00 0.00 0.00 100
20260508014028 54 239 0.0 3.0 0.00 0.00 0.00 100
20260508013528 54 255 0.0 4.0 0.00 0.00 0.00 100
20260508013028 54 271 1.0 5.0 0.00 0.00 0.00 100
20260508012528 54 255 0.0 4.0 0.00 0.00 0.00 100
20260508012028 54 244 0.0 8.0 0.00 0.00 0.00 100
20260508011528 54 253 8.0 8.0 0.00 0.00 0.00 100
20260508011028 54 225 0.0 8.0 0.00 0.00 0.00 100
20260508010528 54 319 1.0 8.0 0.00 0.00 0.00 100
20260508010028 54 220 1.0 9.0 0.00 0.00 0.00 100
20260508005528 54 258 5.0 6.0 0.00 0.00 0.00 100
20260508005028 55 277 5.0 7.0 0.00 0.00 0.00 100
20260508004528 54 257 3.0 6.0 0.00 0.00 0.00 100
20260508004028 54 265 0.0 8.0 0.00 0.00 0.00 100
20260508003528 55 310 2.0 7.0 0.00 0.00 0.00 100
20260508003028 55 284 2.0 6.0 0.00 0.00 0.00 100
20260508002528 55 239 4.0 4.0 0.00 0.00 0.00 100
20260508002028 55 203 0.0 7.0 0.00 0.00 0.00 100
20260508001528 56 268 1.0 9.0 0.00 0.00 0.00 100
20260508001028 56 253 7.0 11.0 0.00 0.00 0.00 100
20260508000528 56 217 3.0 3.0 0.00 0.00 0.00 100
20260508000028 56 267 0.0 8.0 0.00 0.00 0.00 100
20260507235528 56 320 1.0 7.0 0.00 0.00 0.00 100
20260507235028 57 264 0.0 11.0 0.00 0.00 0.00 100
20260507234528 56 257 1.0 8.0 0.00 0.00 0.00 100
20260507234028 57 267 2.0 6.0 0.00 0.00 0.00 100
20260507233528 57 277 5.0 9.0 0.00 0.00 0.00 100
20260507233028 57 255 0.0 5.0 0.00 0.00 0.00 100
20260507232528 57 278 1.0 8.0 0.00 0.00 0.00 100
20260507232028 58 275 2.0 13.0 0.00 0.00 0.00 100
20260507231528 58 286 3.0 9.0 0.00 0.00 0.00 100
20260507231028 58 299 1.0 9.0 0.00 0.00 0.00 100
20260507230528 58 295 0.0 9.0 0.00 0.00 0.00 100
20260507230028 58 278 3.0 8.0 0.00 0.00 0.00 100
20260507225528 58 272 2.0 7.0 0.00 0.00 0.00 100
20260507225028 58 277 5.0 11.0 0.00 0.00 0.00 100
20260507224528 58 292 3.0 15.0 0.00 0.00 0.00 100
20260507224028 58 299 4.0 12.0 0.00 0.00 0.00 100
20260507223528 58 306 1.0 14.0 0.00 0.00 0.00 100
20260507223028 58 302 0.0 7.0 0.00 0.00 0.00 100
20260507222528 59 303 5.0 12.0 0.00 0.00 0.00 100
20260507222028 60 254 6.0 9.0 0.00 0.00 0.00 100
20260507221528 59 163 1.0 13.0 0.00 0.00 0.00 100
20260507221028 59 226 1.0 10.0 0.00 0.00 0.00 100
20260507220528 60 340 0.0 17.0 0.00 0.00 0.00 100
20260507220028 59 282 4.0 18.0 0.00 0.00 0.00 100
20260507215528 59 275 3.0 11.0 0.00 0.00 0.00 100
20260507215028 60 253 6.0 13.0 0.00 0.00 0.00 100
20260507214528 60 257 5.0 19.0 0.00 0.00 0.00 100
20260507214028 60 261 19.0 21.0 0.00 0.00 0.00 100
20260507213528 61 188 2.0 13.0 0.00 0.00 0.00 100
20260507213028 61 251 3.0 6.0 0.00 0.00 0.00 100
20260507212528 61 189 1.0 18.0 0.00 0.00 0.00 100
20260507212028 62 272 9.0 14.0 0.00 0.00 0.00 100
20260507211529 62 303 1.0 15.0 0.00 0.00 0.00 100
20260507211028 61 284 5.0 8.0 0.00 0.00 0.00 100
20260507210528 60 293 2.0 12.0 0.00 0.00 0.00 100
20260507210029 61 298 2.0 16.0 0.00 0.00 0.00 100